TimeCST,TemperatureF,Dew PointF,Humidity,Sea Level PressureIn,VisibilityMPH,Wind Direction,Wind SpeedMPH,Gust SpeedMPH,PrecipitationIn,Events,Conditions,WindDirDegrees,DateUTC
12:43 AM,60.8,46.4,59,30.31,8.0,NE,17.3,-,N/A,,Clear,40,2012-11-17 06:43:00
1:42 AM,57.2,44.6,63,30.33,8.0,NE,18.4,-,N/A,,Clear,50,2012-11-17 07:42:00
3:41 AM,57.2,44.6,63,30.33,8.0,East,11.5,-,N/A,,Clear,90,2012-11-17 09:41:00
5:51 AM,53.6,46.4,77,30.02,8.0,ENE,6.9,-,N/A,,Clear,70,2012-11-17 11:51:00
6:46 AM,50.0,41.0,71,30.35,10.0,ENE,6.9,-,N/A,,Scattered Clouds,60,2012-11-17 12:46:00
7:47 AM,51.8,41.0,67,30.37,10.0,ENE,6.9,-,N/A,,Scattered Clouds,70,2012-11-17 13:47:00
8:45 AM,64.4,48.2,56,30.09,10.0,Calm,Calm,-,N/A,,Scattered Clouds,0,2012-11-17 14:45:00
9:43 AM,69.8,48.2,46,30.41,10.0,NE,6.9,-,N/A,,Scattered Clouds,40,2012-11-17 15:43:00
10:43 AM,71.6,46.4,41,30.41,10.0,South,8.1,-,N/A,,Scattered Clouds,180,2012-11-17 16:43:00
11:42 AM,73.4,46.4,38,30.03,10.0,Calm,Calm,-,N/A,,Scattered Clouds,0,2012-11-17 17:42:00
12:45 PM,78.8,46.4,32,30.32,10.0,Calm,Calm,-,N/A,,Scattered Clouds,0,2012-11-17 18:45:00
1:44 PM,80.6,46.4,30,30.29,10.0,SE,6.9,-,N/A,,Scattered Clouds,130,2012-11-17 19:44:00
2:47 PM,82.4,46.4,28,29.87,10.0,Calm,Calm,-,N/A,,Scattered Clouds,0,2012-11-17 20:47:00
3:45 PM,78.8,44.6,30,30.24,10.0,Calm,Calm,-,N/A,,Scattered Clouds,0,2012-11-17 21:45:00
4:48 PM,78.8,42.8,28,30.24,10.0,Calm,Calm,-,N/A,,Scattered Clouds,0,2012-11-17 22:48:00
6:47 PM,66.2,46.4,49,30.27,10.0,East,6.9,-,N/A,,Partly Cloudy,90,2012-11-18 00:47:00
7:46 PM,64.4,46.4,52,30.29,8.0,NE,11.5,-,N/A,,Partly Cloudy,40,2012-11-18 01:46:00
8:45 PM,62.6,48.2,59,30.03,8.0,East,11.5,-,N/A,,Partly Cloudy,90,2012-11-18 02:45:00
9:42 PM,60.8,46.4,59,30.33,8.0,ENE,9.2,-,N/A,,Clear,70,2012-11-18 03:42:00
10:50 PM,57.2,44.6,63,30.34,8.0,SE,6.9,-,N/A,,Clear,130,2012-11-18 04:50:00
11:43 PM,55.4,42.8,63,30.03,8.0,ENE,9.2,-,N/A,,Clear,60,2012-11-18 05:43:00